EHI
0 0 0 0 0 0 0 0 0 0 0 0 0 0 0 0 0 0 0 0 0 0 0 0 0 0 0 0 0 0 0 0 0 0 0 0 0 0 0 0 0 0 0
0 0 0 0 0 0 0 0 0 0 0 0 0 0 0 0 0 0 0 0 0 0 0 0 0 0 0 0 0 0 0 0 0 0 0 0 0 0 0 0 0 0 0
0 0 0 0 0 0 0 0 0 0 0 0 0 0 0 0 0 0 0 0 0 0 0 0 0 0 0 0 0 0 0 0 0 0 0 0 0 0 0 0 0 0 0
0 0 0 0 0 0 0 0 0 0 0 0 0 0 0 0 0 0 0 0 0 0 0 0 0 0 0 0 0 0 0 0 0 0 0 0 0 0 0 0 0 0 0
0 0 0 0 0 0 0 0 0 0 0 0 0 0 0 0 0 0 0 0 0 0 0 0 0 0 0 0 0 0 0 0 0 0 0 0 0 0 0 0 0 0 0
0 0 0 0 0 0 0 0 0 0 0 0 0 0 0 0 0 0 0 0 0 0 0 0 0 0 0 0 0 0 0 0 0 0 0 0 0 0 0 0 0 0 0
0 0 0 0 0 0 0 0 0 0 0 0 0 0 0 0 0 0 0 0 0 0 0 0 0 0 0 0 0 0 0 0 0 0 0 0 0 0 0 0 0 0 0
0 0 0 0 0 0 0 0 0 0 0 0 0 0 0 0 0 0 0 0 0 0 0 0 0 0 0 0 0 0 0 0 0 0 0 0 0 0 0 0 0 0 0
0 0 0 0 0 0 0 0 0 0 0 0 0 0 0 0 0 0 0 0 0 0 0 0 0 0 0 0 0 0 0 0 0 0 0 0 0 0 0 0 0 0 0
0 0 0 0 0 0 0 0 0 0 0 0 0 0 0 0 0 0 0 0 0 0 0 0 0 0 0 0 0 0 0 0 0 0 0 0 0 0 0 0 0 0 0
0 0 0 0 0 0 0 0 0 0 0 0 0 0 0 0 0 0 0 0 0 0 0 0 0 0 0 0 0 0 0 0 0 0 0 0 0 0 0 0 0 0 0
0 0 0 0 0 0 0 0 0 0 0 0 0 0 0 0 0 0 0 0 0 0 0 0 0 0 0 0 0 0 0 0 0 0 0 0 0 0 0 0 0 0 0
0 0 0 0 0 0 0 0 0 0 0 0 0 0 0 0 0 0 0 0 0 0 0 0 0 0 0 0 0 0 0 0 0 0 0 0 0 0 0 0 0 0 0
0 0 0 0 0 0 0 0 0 0 0 0 0 0 0 0 0 0 0 0 0 0 0 0 0 0 0 0 0 0 0 0 0 0 0 0 0 0 0 0 0 0 0
0 0 0 0 0 0 0 0 0 0 0 0 0 0 0 0 0 0 0 0 0 0 0 0 0 0 0 0 0 0 0 0 0 0 0 0 0 0 0 0 0 0 0
0 0 0 0 0 0 0 0 0 0 0 0 0 0 0 0 0 0 0 0 0 0 0 0 0 0 0 0 0 0 0 0 0 0 0 0 0 0 0 0 0 0 0
0 0 0 0 0 0 0 0 0 0 0 0 0 0 0 0 0 0 0 0 0 0 0 0 0 0 0 0 0 0 0 0 0 0 0 0 0 0 0 0 0 0 0
0 0 0 0 0 0 0 0 0 0 0 0 0 0 0 0 0 0 0 0 0 0 0 0 0 0 0 0 0 0 0 0 0 0 0 0 0 0 0 0 0 0 0
0 0 0 0 0 0 0 0 0 0 0 0 0 0 0 0 0 0 0 0 0 0 0 0 0 0 0 0 0 0 0 0 0 0 0 0 0 0 0 0 0 0 0
0 0 0 0 0 0 0 0 0 0 0 0 0 0 0 0 0 0 0 0 0 0 0 0 0 0 0 0 0 0 0 0 0 0 0 0 0 0 0 0 0 0 0
0 0 0 0 0 0 0 0 0 0 0 0 0 0 0 0 0 0 0 0 0 0 0 0 0 0 0 0 0 0 0 0 0 0 0 0 0 0 0 0 0 0 0
0 0 0 0 0 0 0 0 0 0 0 0 0 0 0 0 0 0 0 0 0 0 0 0 0 0 0 0 0 0 0 0 0 0 0 0 0 0 0 0 0 0 0
0 0 0 0 0 0 0 0 0 0 0 0 0 0 0 0 0 0 0 0 0 0 0 0 0 0 0 0 0 0 0 0 0 0 0 0 0 0 0 0 0 0 0
0 0 0 0 0 0 0 0 0 0 0 0 0 0 0 0 0 0 0 0 0 0 0 0 0 0 0 0 0 0 0 0 0 0 0 0 0 0 0 0 0 0 0
0 0 0 0 0 0 0 0 0 0 0 0 0 0 0 0 0 0 0 0 0 0 0 0 0 0 0 0 0 0 0 0 0 0 0 0 0 0 0 0 0 0 0
0 0 0 0 0 0 0 0 0 0 0 0 0 0 0 0 0 0 0 0 0 0 0 0 0 0 0 0 0 0 0 0 0 0 0 0 0 0 0 0 0 0 0
Wind_Speed
10 11 12 10 10 9 8 7 6 6 5 5 4 3 2 3 3 2 3 4 4 5 5 5 7 6 5 5 5 5 7 8 14 14 9 8 9 10 11 9 10 10 12
10 11 11 11 10 9 8 7 6 6 5 5 4 3 3 3 3 3 4 5 5 6 7 7 8 7 7 5 5 7 8 8 11 17 13 11 11 11 11 10 11 10 9
12 12 11 10 9 8 7 6 6 6 5 5 4 3 3 3 4 4 4 5 5 6 6 7 8 8 8 7 8 8 8 9 8 12 15 13 11 10 10 11 10 10 13
11 11 10 9 8 8 7 6 6 6 5 4 3 3 3 4 4 5 5 4 4 5 6 7 7 8 9 9 9 8 8 8 9 11 13 12 11 9 8 11 13 8 10
12 11 9 8 7 7 7 6 6 5 5 4 3 3 3 4 4 6 4 3 3 5 6 7 8 12 14 12 11 9 9 10 11 12 11 11 11 10 11 11 15 14 10
11 10 8 8 7 7 6 6 6 5 4 3 3 4 4 4 10 13 10 3 3 5 7 7 8 10 14 20 24 24 21 15 12 9 11 14 15 13 12 13 14 16 16
11 9 8 7 7 6 6 6 5 4 3 3 3 4 4 7 13 15 15 7 4 6 8 8 9 10 16 11 17 21 15 21 23 17 15 14 16 15 15 16 15 16 17
10 8 7 7 7 6 6 5 4 2 3 2 3 4 5 7 14 16 17 7 5 7 9 9 10 10 12 16 14 10 9 10 16 12 11 13 13 12 13 15 16 17 15
9 8 7 7 7 6 6 4 2 2 2 2 3 5 5 8 14 17 17 5 5 8 9 9 10 10 19 25 15 10 11 11 17 21 23 23 27 26 21 13 12 13 15
8 8 7 7 7 6 5 3 2 1 2 4 5 5 5 6 14 18 18 5 6 7 6 7 13 17 22 25 13 9 12 13 13 13 15 18 16 17 21 13 11 13 14
9 9 8 7 6 5 4 2 2 3 4 4 5 6 6 8 13 18 18 8 7 7 6 5 7 21 24 24 20 9 16 18 12 12 12 12 11 10 10 10 10 11 14
10 9 7 6 5 4 4 3 3 3 4 5 5 6 5 7 11 15 19 18 18 9 7 6 9 23 24 23 16 19 24 19 9 10 11 11 10 11 11 12 13 13 13
9 8 6 5 4 4 4 3 3 3 3 4 4 5 6 5 8 17 19 21 22 11 8 18 21 22 20 14 18 22 17 9 10 10 11 11 9 10 11 11 12 12 14
8 6 5 5 4 4 3 2 2 3 4 5 5 5 6 6 6 6 7 9 13 11 8 12 18 18 15 16 15 12 8 9 11 10 11 12 11 9 10 10 12 12 12
7 5 4 4 3 2 2 2 3 3 4 6 4 4 6 6 10 19 14 9 9 9 12 4 6 8 8 9 9 9 9 10 10 10 11 12 12 12 12 10 10 11 11
6 4 3 3 2 2 3 3 6 7 11 12 12 12 9 13 19 19 19 20 21 20 13 7 8 8 9 10 11 11 10 10 10 10 10 10 11 12 12 11 10 10 11
6 4 3 3 2 2 2 3 5 6 9 12 14 16 15 18 19 19 19 20 18 16 8 7 7 9 9 10 10 10 11 11 10 10 10 11 11 11 11 11 11 11 10
5 5 4 2 1 2 2 3 3 5 6 6 10 15 17 18 19 18 19 15 10 9 7 8 8 9 10 10 10 10 11 11 10 10 11 11 10 10 11 11 10 11 11
4 2 2 1 1 2 3 3 3 4 5 6 6 8 14 16 16 16 15 8 8 8 8 8 9 9 10 10 10 10 11 11 11 11 11 11 10 10 10 10 10 15 12
3 3 2 1 2 3 3 3 3 4 5 5 6 7 8 9 7 9 8 7 8 9 9 9 10 10 10 10 10 11 11 11 12 11 11 10 10 9 10 12 11 10 8
2 2 4 3 2 3 3 3 4 4 5 5 6 9 15 9 7 8 8 8 8 9 9 10 10 11 10 10 10 11 13 12 11 11 10 10 10 10 10 10 10 9 7
1 2 2 2 2 3 3 3 4 5 6 6 6 8 15 8 7 8 8 9 9 9 9 10 10 10 10 10 11 11 12 12 12 11 11 11 10 10 10 9 8 6 5
1 2 2 2 3 6 5 4 4 5 6 6 7 8 8 7 8 8 9 9 9 10 9 10 11 11 10 10 10 11 12 12 12 13 13 13 11 9 8 8 8 6 4
1 2 3 3 3 4 4 5 5 6 7 7 7 8 8 8 9 10 9 8 9 10 10 10 11 15 18 15 12 11 12 13 14 14 15 10 8 7 7 6 6 5 4
2 2 3 3 4 5 5 6 6 6 7 8 8 9 9 9 9 9 8 9 10 11 13 13 11 12 16 20 19 16 20 27 23 11 7 7 7 7 7 6 4 4 3
2 2 3 4 4 4 5 6 6 7 7 8 8 8 9 9 9 8 9 9 10 11 13 12 14 17 20 17 19 23 27 26 19 15 8 5 7 6 6 4 4 3 4
Wind_Direction
118 116 116 113 111 108 108 111 109 103 100 95 88 72 41 17 359 349 321 310 313 303 296 286 276 267 254 249 250 257 261 266 282 294 292 291 282 277 285 276 275 274 276
117 114 113 112 109 107 107 109 110 106 98 92 82 61 29 5 349 336 317 319 310 302 299 298 290 287 268 264 263 262 264 264 277 293 300 299 291 288 285 279 288 284 271
116 114 113 111 109 109 112 113 109 103 91 78 69 46 15 348 327 314 308 307 302 300 301 299 294 293 287 279 272 272 271 278 278 288 295 296 293 292 293 291 284 275 279
116 115 114 113 115 117 116 111 104 98 87 71 55 33 360 328 314 307 302 296 305 311 305 298 295 292 284 279 281 276 284 289 286 286 288 293 297 298 296 299 298 282 282
117 115 114 116 115 113 109 104 97 88 81 66 45 15 352 329 309 302 287 284 302 306 299 293 294 302 308 308 310 307 303 298 298 299 305 310 305 306 304 303 301 301 289
117 116 119 118 113 110 107 102 91 78 65 48 24 360 343 326 314 318 321 290 281 294 294 290 291 298 305 317 315 311 310 313 315 307 303 302 304 304 303 301 303 302 300
114 117 119 116 110 108 104 92 81 70 51 29 2 338 315 309 321 324 321 321 286 288 290 293 303 307 314 299 300 306 312 312 311 308 304 303 303 304 302 301 299 296 296
115 116 117 111 106 100 92 85 77 60 35 2 325 319 320 321 330 326 321 325 290 283 286 289 292 294 295 303 307 311 297 299 304 304 293 295 301 300 297 300 299 297 292
116 115 112 110 107 100 92 84 66 46 9 325 321 330 326 316 326 324 325 302 286 286 288 292 298 294 304 316 321 309 306 309 314 311 310 310 309 309 308 307 304 303 301
114 107 102 104 106 104 100 83 57 28 343 337 330 322 313 306 319 325 325 297 292 291 287 284 306 315 316 322 321 314 316 312 312 316 315 309 304 301 307 306 303 300 300
106 100 96 99 104 106 98 81 45 16 359 344 321 315 310 311 322 325 324 320 304 303 307 304 299 318 323 326 327 320 310 317 324 318 309 304 303 304 304 300 294 293 296
102 100 98 97 98 97 85 57 32 14 351 333 320 314 304 305 319 322 326 326 324 318 316 309 308 323 328 329 328 318 321 329 321 310 307 308 308 306 304 301 297 291 284
102 103 105 97 79 73 65 39 14 357 340 322 313 313 314 309 312 323 325 325 325 325 315 320 324 329 332 329 320 323 329 322 310 310 310 307 300 294 299 303 303 298 293
109 108 102 91 72 47 33 19 356 337 323 315 314 315 312 311 305 302 303 313 321 320 312 318 328 330 328 323 322 321 315 310 314 311 308 305 304 303 307 311 313 315 311
107 104 96 87 76 43 9 343 329 296 294 316 308 302 316 315 318 328 330 324 327 320 328 326 323 324 322 320 318 317 316 316 314 310 308 308 309 311 312 314 310 310 310
110 103 96 87 59 34 358 333 327 323 327 332 333 332 323 324 328 330 332 335 335 334 337 327 321 319 318 319 318 317 315 314 312 310 306 305 308 310 311 313 311 310 312
111 109 90 68 38 4 340 324 318 324 328 334 339 337 334 332 332 333 338 338 337 339 335 318 316 317 315 313 311 310 310 309 308 305 304 306 306 307 308 310 313 314 313
93 83 76 51 7 322 303 298 298 311 321 320 330 333 335 334 333 337 341 341 333 334 323 318 316 314 311 309 309 310 309 309 309 307 306 305 305 305 306 308 310 312 313
83 70 72 20 321 300 297 299 300 304 306 309 312 322 331 329 332 336 342 335 322 322 321 318 313 310 307 307 307 307 306 305 305 305 303 303 304 304 303 305 306 311 316
65 37 44 343 310 303 302 305 307 307 306 310 315 319 317 321 330 330 331 322 319 317 317 314 311 306 307 306 306 306 306 305 305 303 301 301 301 300 301 304 305 308 311
64 4 350 341 314 309 306 306 307 305 305 307 308 314 325 332 325 317 318 318 317 316 315 312 308 306 304 303 303 303 303 301 300 299 299 298 300 301 300 299 301 304 311
49 339 322 319 322 317 312 310 307 307 307 306 305 311 324 325 312 313 315 315 315 313 310 306 302 299 300 302 303 303 301 300 299 299 298 297 297 295 295 297 303 316 324
25 344 338 339 330 325 329 313 307 307 304 301 306 313 316 314 314 313 312 313 314 309 306 303 300 299 300 301 299 296 294 293 293 292 292 291 290 289 292 302 314 326 329
28 2 348 337 323 315 312 311 310 309 309 309 312 312 312 313 313 310 310 309 308 305 303 302 299 299 302 306 304 300 293 291 289 284 284 293 304 306 308 316 323 335 333
33 5 343 326 315 314 311 307 304 305 312 314 313 312 312 312 309 307 307 308 306 305 305 305 301 303 306 309 307 302 301 307 311 314 317 318 309 308 314 322 331 341 344
18 354 331 318 307 303 305 303 307 312 312 309 307 307 308 307 306 307 308 307 308 308 306 305 304 307 309 308 305 307 312 317 327 339 338 315 310 313 324 329 344 354 349